(16989) = 1990 SY18 = 1999 CX = 1994 XC6

Discovered at Oizumi on 1999-02-05 by T. Kobayashi.

Orbit

Orbit type: Main Belt

Note: WebGL enabled browser required.

epoch2023-09-13.0
epoch JD2460200.5
perihelion date2023-06-08.56557
perihelion JD2460104.06557
argument of perihelion (°)198.95801
ascending node (°)77.32976
inclination (°)3.52593
eccentricity0.1609324
perihelion distance (AU)1.8673126
Tisserand w.r.t. Jupiter3.6
ΔV w.r.t. Earth (km/sec)8.5
semimajor axis (AU)2.2254615
mean anomaly (°)28.62898
mean daily motion (°/day)0.29687510
aphelion distance (AU)2.584
period (years)3.32
P-vector [x]0.10892210
P-vector [y]-0.90389152
P-vector [z]-0.41366182
Q-vector [x]0.99223770
Q-vector [y]0.12398125
Q-vector [z]-0.00964311
absolute magnitude14.91
phase slope0.15
uncertainty0
referenceMPEC 2024-A48
observations used2373
oppositions21
arc length (days)12109
first opposition used1990
last opposition used2023
residual rms (arc-secs)0.61
perturbers coarse indicatorM-v
perturbers precise indicator003Ek
first observation date used1990-09-16.0
last observation date used2023-11-11.0
computer nameMPCLINUX
JD of orbit computation2456494.356677
perihelion JD uncertainty (days)5.0518E-05
argument of perihelion uncertainty (°)7.4188E-05
ascending node uncertainty (°)7.2907E-05
inclination uncertainty (°)4.1615E-06
eccentricity uncertainty 3.6952E-08
perihelion distance uncertainty (AU)8.2666E-08
Minimum Orbit Intersection Distances (in AU)
for orbit epoch: 2460200.5, reference: E2024-A48
Mercury1.40588
Venus1.13999
Earth0.8507
Mars0.39286
Jupiter2.51647
Saturn6.4724
Uranus16.0539
Neptune27.3967

Observations

2411 total observations over interval: 1990 09 16.26406 – 2023 11 11.095943
These data are available for download (format description).

Date (UT) J2000 RA J2000 Dec Magn Location Ref
1990 09 16.26406 22 42 59.80 -15 27 20.5 17.5   675 – Palomar Mountain MPC 18970
1990 09 16.30069 22 42 57.90 -15 27 27.4   675 – Palomar Mountain MPC 18970
1994 12 04.01303 04 52 14.37 +22 06 02.4 18.0 V 098 – Asiago Observatory, Cima Ekar MPC 24794
1994 12 04.95266 04 51 07.09 +22 05 29.2   098 – Asiago Observatory, Cima Ekar MPC 24794
1996 03 23.33692 12 54 34.33 +00 47 02.8 17.1 V 691 – Steward Observatory, Kitt Peak-Spacewatch MPS 80749
1996 03 23.35775 12 54 33.12 +00 47 10.3 17.1 V 691 – Steward Observatory, Kitt Peak-Spacewatch MPS 80749
1996 03 23.37902 12 54 31.88 +00 47 17.9 17.1 V 691 – Steward Observatory, Kitt Peak-Spacewatch MPS 80749
1997 10 22.13585 02 34 28.15 +10 49 51.4 18.0   704 – Lincoln Laboratory ETS, New Mexico MPS 5899
1997 10 22.14728 02 34 27.45 +10 49 47.7 18.0   704 – Lincoln Laboratory ETS, New Mexico MPS 5899
1997 10 22.16995 02 34 26.01 +10 49 42.5 18.2   704 – Lincoln Laboratory ETS, New Mexico MPS 5899
1997 10 22.18126 02 34 25.24 +10 49 38.3 18.2   704 – Lincoln Laboratory ETS, New Mexico MPS 5899
1997 10 29.24380 02 26 44.59 +10 20 40.3 18.6   704 – Lincoln Laboratory ETS, New Mexico MPS 5899
1997 10 29.26430 02 26 43.20 +10 20 35.7 18.7   704 – Lincoln Laboratory ETS, New Mexico MPS 5899
1997 10 29.28451 02 26 41.83 +10 20 30.8 18.6   704 – Lincoln Laboratory ETS, New Mexico MPS 5899
1997 10 29.30488 02 26 40.49 +10 20 25.0 18.3   704 – Lincoln Laboratory ETS, New Mexico MPS 5899
1997 10 29.32540 02 26 39.06 +10 20 20.1 18.4   704 – Lincoln Laboratory ETS, New Mexico MPS 5899
1997 10 30.29596 02 25 35.29 +10 16 25.1 18.1   704 – Lincoln Laboratory ETS, New Mexico MPS 5899
1997 10 30.31667 02 25 33.89 +10 16 20.3 18.1   704 – Lincoln Laboratory ETS, New Mexico MPS 5899
1997 10 30.33759 02 25 32.46 +10 16 16.0 18.4   704 – Lincoln Laboratory ETS, New Mexico MPS 5899
1997 10 30.35820 02 25 31.07 +10 16 10.1   704 – Lincoln Laboratory ETS, New Mexico MPS 5899
1997 10 30.37888 02 25 29.61 +10 16 06.7   704 – Lincoln Laboratory ETS, New Mexico MPS 5899
1997 11 03.32591 02 21 11.56 +10 00 40.5 19.5   704 – Lincoln Laboratory ETS, New Mexico MPS 5899
1997 11 03.34258 02 21 10.34 +10 00 36.6 19.3   704 – Lincoln Laboratory ETS, New Mexico MPS 5899
1997 11 03.35897 02 21 09.39 +10 00 33.5 19.3   704 – Lincoln Laboratory ETS, New Mexico MPS 5899
1997 11 03.37513 02 21 08.22 +10 00 28.9 19.6   704 – Lincoln Laboratory ETS, New Mexico MPS 5899
1998 11 25.13171 10 08 50.85 +14 34 54.3   561 – Piszkesteto Stn. (Konkoly) MPS 5899
1998 11 25.13449 10 08 51.04 +14 34 53.7   561 – Piszkesteto Stn. (Konkoly) MPS 5899
1999 01 13.43608 10 23 28.35 +15 01 45.0 18.5 R 699 – Lowell Observatory-LONEOS MPS 3870
1999 01 13.45646 10 23 27.80 +15 01 49.2   699 – Lowell Observatory-LONEOS MPS 3870
1999 01 13.47684 10 23 27.16 +15 01 55.9   699 – Lowell Observatory-LONEOS MPS 3870
1999 02 05.68095 10 06 57.96 +17 19 15.0 18   411 – Oizumi MPS 3870
1999 02 05.69996 10 06 56.81 +17 19 22.4   411 – Oizumi MPS 3870
1999 02 06.55287 10 06 06.44 +17 25 05.6   411 – Oizumi MPS 3870
1999 02 06.56753 10 06 05.53 +17 25 11.7   411 – Oizumi MPS 3870
1999 02 10.31318 10 02 15.60 +17 50 17.4 18.4   704 – Lincoln Laboratory ETS, New Mexico MPS 3870
1999 02 10.33430 10 02 14.22 +17 50 25.9 19.1   704 – Lincoln Laboratory ETS, New Mexico MPS 3870
1999 02 10.35530 10 02 12.93 +17 50 35.5 18.8   704 – Lincoln Laboratory ETS, New Mexico MPS 3870
1999 02 10.37624 10 02 11.57 +17 50 43.8 18.5   704 – Lincoln Laboratory ETS, New Mexico MPS 3870
1999 02 13.35416 09 59 01.82 +18 10 20.8 18.1   704 – Lincoln Laboratory ETS, New Mexico MPS 3870
1999 02 13.36812 09 59 00.98 +18 10 25.8 18.0   704 – Lincoln Laboratory ETS, New Mexico MPS 3870
1999 02 13.38211 09 59 00.04 +18 10 33.1 18.0   704 – Lincoln Laboratory ETS, New Mexico MPS 3870
1999 02 13.39610 09 58 59.10 +18 10 39.2 19.3   704 – Lincoln Laboratory ETS, New Mexico MPS 3870
1999 02 13.52589 09 58 51.01 +18 11 27.9   411 – Oizumi MPS 3870
1999 02 13.53677 09 58 50.29 +18 11 32.0   411 – Oizumi MPS 3870
1999 02 20.53994 09 51 13.58 +18 55 07.3   411 – Oizumi MPS 4154
1999 02 20.55282 09 51 12.69 +18 55 11.4   411 – Oizumi MPS 4154
2000 07 07.38571 23 41 48.03 -07 11 02.1 18.6   704 – Lincoln Laboratory ETS, New Mexico MPS 16443
2000 07 07.40058 23 41 48.65 -07 11 01.3 18.8   704 – Lincoln Laboratory ETS, New Mexico MPS 16443
2000 07 07.41419 23 41 49.31 -07 10 59.7 18.7   704 – Lincoln Laboratory ETS, New Mexico MPS 16443
2000 07 07.42948 23 41 49.95 -07 10 57.6 18.3   704 – Lincoln Laboratory ETS, New Mexico MPS 16443
2000 08 02.36835 23 50 33.94 -07 33 38.7 17.8   704 – Lincoln Laboratory ETS, New Mexico MPS 17514
2000 08 02.38261 23 50 33.77 -07 33 41.6 18.7   704 – Lincoln Laboratory ETS, New Mexico MPS 17514
2000 08 02.39699 23 50 33.73 -07 33 45.4 18.7   704 – Lincoln Laboratory ETS, New Mexico MPS 17514
2000 08 02.41125 23 50 33.58 -07 33 47.7 18.0   704 – Lincoln Laboratory ETS, New Mexico MPS 17514
2000 08 02.42550 23 50 33.46 -07 33 52.0 18.4   704 – Lincoln Laboratory ETS, New Mexico MPS 17514
2000 08 29.34195 23 36 15.59 -10 01 45.6 17.0   704 – Lincoln Laboratory ETS, New Mexico MPS 17514
2000 08 29.35535 23 36 14.85 -10 01 50.9 17.0   704 – Lincoln Laboratory ETS, New Mexico MPS 17514
2000 08 29.38226 23 36 13.31 -10 02 02.1 17.4   704 – Lincoln Laboratory ETS, New Mexico MPS 17514
2000 08 29.39570 23 36 12.56 -10 02 06.6 18.6   704 – Lincoln Laboratory ETS, New Mexico MPS 17514
2000 09 02.25748 23 32 40.46 -10 27 18.9 17.1   704 – Lincoln Laboratory ETS, New Mexico MPS 17514
2000 09 02.28436 23 32 38.93 -10 27 29.2 16.1   704 – Lincoln Laboratory ETS, New Mexico MPS 17514
2000 09 02.29747 23 32 38.13 -10 27 34.5 17.1   704 – Lincoln Laboratory ETS, New Mexico MPS 17514
2000 09 02.31045 23 32 37.37 -10 27 39.7 16.3   704 – Lincoln Laboratory ETS, New Mexico MPS 17514
2000 09 05.27007 23 29 47.47 -10 46 28.6 17.2   704 – Lincoln Laboratory ETS, New Mexico MPS 17514
2000 09 05.28333 23 29 46.60 -10 46 33.5 16.9   704 – Lincoln Laboratory ETS, New Mexico MPS 17514
2000 09 05.29673 23 29 45.79 -10 46 38.8 16.4   704 – Lincoln Laboratory ETS, New Mexico MPS 17514
2000 09 05.31010 23 29 44.97 -10 46 43.6 16.8   704 – Lincoln Laboratory ETS, New Mexico MPS 17514
2000 09 05.32345 23 29 44.13 -10 46 48.4 17.1   704 – Lincoln Laboratory ETS, New Mexico MPS 17514
2000 09 23.20171 23 12 47.66 -12 16 53.5 16.8 R 699 – Lowell Observatory-LONEOS MPS 30608
2000 09 23.21722 23 12 46.84 -12 16 56.9   699 – Lowell Observatory-LONEOS MPS 30608
2000 09 23.23266 23 12 46.02 -12 17 00.2   699 – Lowell Observatory-LONEOS MPS 30608
2000 09 23.24809 23 12 45.18 -12 17 03.0   699 – Lowell Observatory-LONEOS MPS 30608
2000 09 24.18225 23 11 58.33 -12 20 10.0 16.7 R 699 – Lowell Observatory-LONEOS MPS 30608
2000 09 24.20538 23 11 57.09 -12 20 14.7   699 – Lowell Observatory-LONEOS MPS 30608
2000 09 24.22864 23 11 55.88 -12 20 19.3   699 – Lowell Observatory-LONEOS MPS 30608
2000 09 24.25181 23 11 54.65 -12 20 23.7   699 – Lowell Observatory-LONEOS MPS 30608
2000 09 24.25628 23 11 54.41 -12 20 24.5 17.1   704 – Lincoln Laboratory ETS, New Mexico MPS 20588
2000 09 24.27192 23 11 53.58 -12 20 27.3 17.2   704 – Lincoln Laboratory ETS, New Mexico MPS 20588
2000 09 24.28656 23 11 52.80 -12 20 31.0 17.0   704 – Lincoln Laboratory ETS, New Mexico MPS 20588
2000 09 24.30171 23 11 52.00 -12 20 33.6 17.4   704 – Lincoln Laboratory ETS, New Mexico MPS 20588
2000 10 02.19536 23 06 03.77 -12 38 54.9 18.1   704 – Lincoln Laboratory ETS, New Mexico MPS 20588
2000 10 02.20550 23 06 03.35 -12 38 55.0 17.4 R 699 – Lowell Observatory-LONEOS MPS 21986
2000 10 02.21090 23 06 03.12 -12 38 55.4 18.2   704 – Lincoln Laboratory ETS, New Mexico MPS 20588
2000 10 02.22488 23 06 02.56 -12 38 56.8   699 – Lowell Observatory-LONEOS MPS 21986
2000 10 02.22705 23 06 02.50 -12 38 57.3 18.5   704 – Lincoln Laboratory ETS, New Mexico MPS 20588
2000 10 02.24296 23 06 01.87 -12 38 58.6 18.4   704 – Lincoln Laboratory ETS, New Mexico MPS 20588
2000 10 02.24430 23 06 01.80 -12 38 58.6   699 – Lowell Observatory-LONEOS MPS 21986
2000 10 02.25811 23 06 01.16 -12 38 59.5 18.1   704 – Lincoln Laboratory ETS, New Mexico MPS 20588
